Latest Weather Observations for Merriwa

IDN60801

Issued at 4:35 am EDT Saturday 1 November 2014 (issued every 30 minutes, with the page automatically refreshed every 10 minutes)

About weather observations | Map of weather stations | Latest weather observations for NSW | Other Formats
Station Details ID: 061287 Name: MERRIWA (ROSCOMMON) Lat: -32.19 Lon: 150.17 Height: 375.0 m
Data from the previous 72 hours. | See also: Recent months at Merriwa
Date/Time
EDT
Temp
°C
App
Temp
°C
Dew
Point
Rel
Hum
%
Delta-T
°C
Wind Press
QNH
hPa
Press
MSL
hPa
Rain
since 9 am
mm
Dir
 
Spd
km/h
Gust
km/h
Spd
kts
Gust
kts
01/04:30am 15.7 17.5 15.4 98 0.2 S 0 0 0 0 1009.0 1008.3 -
01/04:00am 16.3 17.2 16.0 98 0.2 S 6 9 3 5 1009.0 1008.3 -
01/03:30am 16.6 17.0 16.3 98 0.2 S 9 13 5 7 1009.1 1008.4 -
01/03:00am 17.2 18.2 16.9 98 0.2 NNE 7 11 4 6 1009.4 1008.7 -
01/02:00am 18.2 19.3 17.9 98 0.2 NE 9 11 5 6 1009.6 1008.9 0.6
01/01:30am 18.5 20.0 17.7 95 0.5 NE 6 11 3 6 1010.0 1009.3 0.4
01/01:00am 18.9 21.6 17.7 93 0.7 CALM 0 7 0 4 1010.6 1010.0 0.4
01/12:30am 18.6 19.8 17.4 93 0.7 N 7 11 4 6 1011.7 1011.0 0.4
01/12:00am 19.4 19.9 16.6 84 1.7 NW 9 13 5 7 1012.1 1011.4 0.2
 
Date/Time
EDT
Temp
°C
App
Temp
°C
Dew
Point
Rel
Hum
%
Delta-T
°C
Wind Press
QNH
hPa
Press
MSL
hPa
Rain
since 9 am
mm
Dir
 
Spd
km/h
Gust
km/h
Spd
kts
Gust
kts
31/11:30pm 19.6 19.4 16.6 83 1.8 W 13 20 7 11 1011.9 1011.2 0.2
31/11:00pm 19.6 16.9 16.6 83 1.8 NW 26 32 14 17 1013.2 1012.6 0.0
31/10:30pm 21.1 14.2 15.6 71 3.3 NW 46 61 25 33 1012.6 1012.0 0.0
31/10:06pm 21.7 15.0 15.1 66 4.0 NNW 44 63 24 34 1012.7 1012.1 0.0
31/10:00pm 21.8 14.7 14.9 65 4.1 NNW 46 61 25 33 1012.7 1012.1 0.0
31/09:44pm 21.2 14.7 15.5 70 3.4 NW 44 65 24 35 1012.1 1011.4 0.0
31/09:43pm 20.9 14.6 15.7 72 3.2 NW 43 54 23 29 1012.1 1011.4 0.0
31/09:30pm 23.7 13.2 13.3 52 6.1 NW 61 93 33 50 1011.7 1011.0 0.0
31/09:24pm 25.7 13.0 11.1 40 8.4 NW 69 93 37 50 1011.0 1010.4 0.0
31/09:23pm 28.2 22.0 9.5 31 10.6 WNW 32 72 17 39 1011.0 1010.4 0.0
31/09:00pm 27.4 22.0 6.2 26 11.3 WNW 24 28 13 15 1009.6 1008.9 0.0
31/08:30pm 25.2 22.0 4.9 27 10.4 N 11 13 6 7 1009.1 1008.4 0.0
31/08:00pm 26.9 23.5 4.0 23 11.7 NNW 11 13 6 7 1008.9 1008.2 0.0
31/07:30pm 28.3 24.0 3.2 20 12.8 NNW 15 17 8 9 1008.5 1007.9 0.0
31/07:00pm 31.4 26.0 2.6 16 14.8 NNW 20 26 11 14 1008.1 1007.5 0.0
31/06:30pm 33.0 28.3 2.9 15 15.7 NNW 17 22 9 12 1007.9 1007.3 0.0
31/06:00pm 34.3 28.8 1.9 13 16.7 NW 20 28 11 15 1008.0 1007.4 0.0
31/05:30pm 33.9 28.9 3.6 15 16.0 NNW 19 26 10 14 1008.1 1007.5 0.0
31/05:00pm 33.7 27.9 2.5 14 16.2 NNW 22 30 12 16 1008.3 1007.7 0.0
31/04:30pm 35.2 29.5 2.6 13 17.1 NNW 22 33 12 18 1008.5 1007.9 0.0
31/04:00pm 35.1 31.4 2.6 13 17.1 NNW 11 22 6 12 1008.9 1008.2 0.0
31/03:30pm 34.0 26.2 -0.6 11 17.1 N 30 35 16 19 1009.3 1008.6 0.0
31/03:00pm 34.5 30.2 1.0 12 17.1 NW 13 26 7 14 1009.8 1009.1 0.0
31/02:30pm 35.3 29.8 0.4 11 17.7 NW 19 30 10 16 1010.5 1009.9 0.0
31/02:00pm 34.6 28.6 -1.4 10 17.6 N 20 30 11 16 1011.0 1010.4 0.0
31/01:30pm 35.0 29.2 0.2 11 17.5 WNW 20 32 11 17 1011.7 1011.0 0.0
31/01:00pm 33.6 27.5 -2.2 10 17.2 NNW 20 32 11 17 1012.3 1011.6 0.0
31/12:30pm 33.8 26.6 -2.0 10 17.3 NNW 26 32 14 17 1012.7 1012.1 0.0
31/12:00pm 32.7 25.9 0.7 13 16.0 W 26 41 14 22 1013.3 1012.7 0.0
31/11:57am 33.5 26.0 1.3 13 16.4 W 30 41 16 22 1013.1 1012.5 0.0
31/11:56am 33.2 24.0 1.1 13 16.2 NW 39 56 21 30 1012.8 1012.2 0.0
31/11:30am 32.3 28.7 0.4 13 15.8 E 9 20 5 11 1013.9 1013.3 0.0
31/11:00am 31.6 28.6 1.8 15 15.1 NE 7 13 4 7 1014.5 1013.8 0.0
31/10:30am 30.0 27.5 3.9 19 13.6 SE 6 11 3 6 1014.9 1014.3 0.0
31/10:00am 28.0 25.7 5.6 24 11.8 E 7 13 4 7 1015.1 1014.5 0.0
31/09:30am 25.1 23.0 6.8 31 9.7 E 7 11 4 6 1015.3 1014.7 0.0
31/09:00am 22.1 19.5 6.3 36 8.2 S 9 15 5 8 1015.4 1014.8 0.0
31/08:30am 20.8 18.5 4.8 35 8.0 S 6 9 3 5 1015.5 1014.9 0.0
31/08:00am 18.7 16.9 3.3 36 7.3 NW 2 7 1 4 1015.5 1014.9 0.0
31/07:30am 16.0 14.4 2.4 40 6.2 CALM 0 0 0 0 1015.3 1014.7 0.0
31/07:00am 12.0 9.2 3.3 55 3.9 NE 7 9 4 5 1015.1 1014.5 0.0
31/06:30am 9.3 7.6 1.7 59 3.2 CALM 0 0 0 0 1015.1 1014.5 0.0
31/06:00am 9.3 7.3 2.4 62 3.0 WNW 2 7 1 4 1014.9 1014.3 0.0
31/05:30am 8.5 6.8 2.1 64 2.7 CALM 0 2 0 1 1014.9 1014.3 0.0
31/05:00am 7.1 3.9 1.0 65 2.5 NW 7 11 4 6 1014.7 1014.1 0.0
31/04:30am 9.8 7.3 1.7 57 3.5 W 4 7 2 4 1014.5 1013.8 0.0
31/04:00am 10.4 7.3 1.5 54 3.8 W 7 7 4 4 1014.5 1013.8 0.0
31/03:30am 9.6 7.8 1.5 57 3.4 CALM 0 0 0 0 1014.3 1013.7 0.0
31/03:00am 11.4 9.7 1.9 52 4.1 CALM 0 0 0 0 1014.3 1013.7 0.0
31/02:30am 10.7 7.8 1.3 52 4.0 W 6 7 3 4 1014.5 1013.8 0.0
31/02:00am 11.0 8.1 1.5 52 4.1 SW 6 7 3 4 1014.6 1013.9 0.0
31/01:30am 11.1 8.6 1.4 51 4.2 SSE 4 9 2 5 1014.8 1014.2 0.0
31/01:00am 12.3 10.5 1.0 46 4.9 CALM 0 0 0 0 1015.0 1014.4 0.0
31/12:30am 12.1 9.9 0.8 46 4.8 ESE 2 7 1 4 1015.2 1014.6 0.0
31/12:00am 13.0 11.1 0.7 43 5.3 CALM 0 0 0 0 1015.2 1014.6 0.0
 
Date/Time
EDT
Temp
°C
App
Temp
°C
Dew
Point
Rel
Hum
%
Delta-T
°C
Wind Press
QNH
hPa
Press
MSL
hPa
Rain
since 9 am
mm
Dir
 
Spd
km/h
Gust
km/h
Spd
kts
Gust
kts
30/11:30pm 14.6 11.5 1.2 40 5.9 WNW 7 9 4 5 1015.1 1014.5 0.0
30/11:00pm 15.3 13.4 0.3 36 6.5 CALM 0 0 0 0 1015.1 1014.5 0.0
30/10:30pm 16.4 13.3 0.1 33 7.1 NE 6 7 3 4 1014.9 1014.3 0.0
30/10:00pm 16.0 13.5 -0.7 32 7.2 WNW 2 9 1 5 1014.8 1014.2 0.0
30/09:30pm 17.6 14.2 -0.6 29 7.9 W 7 9 4 5 1014.6 1013.9 0.0
30/09:00pm 20.2 17.0 -0.4 25 9.2 W 6 9 3 5 1014.3 1013.7 0.0
30/08:30pm 20.3 16.9 -0.9 24 9.4 W 7 9 4 5 1014.0 1013.4 0.0
30/08:00pm 21.4 18.0 -1.8 21 10.2 WSW 6 7 3 4 1013.7 1013.1 0.0
30/07:30pm 26.4 22.4 -2.3 15 13.0 WSW 9 13 5 7 1013.4 1012.8 0.0
30/07:00pm 28.7 24.1 -1.4 14 14.1 WSW 13 20 7 11 1013.2 1012.6 0.0
30/06:30pm 30.1 24.6 -2.4 12 15.2 WSW 17 24 9 13 1013.0 1012.4 0.0
30/06:00pm 31.0 25.8 -2.9 11 15.8 WSW 15 26 8 14 1012.8 1012.2 0.0
30/05:30pm 31.5 25.9 -2.5 11 16.0 W 17 32 9 17 1012.7 1012.1 0.0
30/05:00pm 31.5 25.4 -3.8 10 16.3 SW 19 32 10 17 1012.8 1012.2 0.0
30/04:30pm 31.4 25.7 -3.8 10 16.2 WSW 17 28 9 15 1012.8 1012.2 0.0
30/04:00pm 32.0 25.2 -2.1 11 16.2 WNW 24 33 13 18 1013.0 1012.4 0.0
30/03:30pm 32.0 25.9 -2.1 11 16.2 WNW 20 35 11 19 1013.1 1012.5 0.0
30/03:00pm 31.8 27.7 2.0 15 15.2 WNW 13 24 7 13 1013.4 1012.8 0.0
30/02:30pm 31.2 27.3 3.3 17 14.5 W 13 20 7 11 1013.9 1013.3 0.0
30/02:00pm 30.3 24.9 2.5 17 14.1 WSW 20 30 11 16 1014.7 1014.1 0.0
30/01:30pm 30.2 24.9 1.6 16 14.3 W 19 24 10 13 1014.9 1014.3 0.0
30/01:27pm 30.7 23.7 2.0 16 14.5 NW 28 35 15 19 1014.8 1014.2 0.0
30/01:00pm 29.4 25.2 1.8 17 13.8 W 13 15 7 8 1015.1 1014.5 0.0
30/12:30pm 29.6 25.2 5.0 21 13.0 WSW 17 26 9 14 1015.4 1014.8 0.0
30/12:00pm 28.4 24.0 4.6 22 12.4 WSW 17 35 9 19 1016.1 1015.5 0.0
30/11:30am 27.5 23.7 5.7 25 11.5 W 15 28 8 15 1016.4 1015.8 0.0
30/11:00am 27.0 22.3 5.3 25 11.3 W 19 26 10 14 1016.8 1016.2 0.0
30/10:30am 26.0 24.1 7.6 31 10.0 NW 7 13 4 7 1016.8 1016.2 0.0
30/10:00am 23.5 22.1 8.8 39 8.0 W 6 9 3 5 1017.4 1016.8 0.0
30/09:30am 21.8 20.9 10.6 49 6.2 W 6 13 3 7 1017.4 1016.8 0.0
30/09:00am 20.4 20.1 11.6 57 5.0 ENE 4 7 2 4 1017.6 1017.0 0.0
30/08:30am 18.2 17.9 11.5 65 3.7 NNE 4 9 2 5 1017.5 1016.9 0.0
30/08:00am 16.2 15.7 10.7 70 3.0 WSW 4 7 2 4 1017.5 1016.9 0.0
30/07:30am 13.8 12.4 9.5 75 2.2 WSW 7 11 4 6 1017.3 1016.7 0.0
30/07:00am 10.5 9.5 10.2 98 0.2 WNW 6 7 3 4 1017.0 1016.5 0.0
30/06:30am 7.9 6.3 7.8 99 0.0 WNW 6 7 3 4 1016.9 1016.4 0.0
30/06:00am 8.0 7.5 7.7 98 0.1 CALM 0 0 0 0 1016.5 1015.9 0.0
30/05:30am 8.2 7.7 7.9 98 0.1 CALM 0 0 0 0 1016.3 1015.7 0.0
30/05:00am 8.5 8.1 8.2 98 0.1 CALM 0 0 0 0 1016.2 1015.6 0.0
30/04:30am 9.7 9.6 9.4 98 0.2 CALM 0 0 0 0 1016.2 1015.6 0.0
30/04:00am 9.5 9.3 9.2 98 0.2 CALM 0 0 0 0 1016.2 1015.6 0.0
30/03:30am 10.0 10.0 9.7 98 0.2 CALM 0 0 0 0 1016.2 1015.6 0.0
30/03:00am 10.3 10.1 8.9 91 0.7 CALM 0 0 0 0 1016.3 1015.7 0.0
30/02:30am 10.8 9.9 9.2 90 0.8 NE 4 6 2 3 1016.3 1015.7 0.0
30/02:00am 11.3 9.7 8.9 85 1.2 NE 7 9 4 5 1016.3 1015.7 0.0
30/01:30am 11.7 9.9 9.3 85 1.2 NE 9 9 5 5 1016.3 1015.7 0.0
30/01:00am 12.4 10.5 9.2 81 1.6 ENE 9 11 5 6 1016.5 1015.9 0.0
30/12:30am 12.3 9.8 8.2 76 2.1 NE 11 11 6 6 1016.7 1016.1 0.0
30/12:00am 13.1 11.3 8.0 71 2.6 NE 7 11 4 6 1016.8 1016.2 0.0
 
Date/Time
EDT
Temp
°C
App
Temp
°C
Dew
Point
Rel
Hum
%
Delta-T
°C
Wind Press
QNH
hPa
Press
MSL
hPa
Rain
since 9 am
mm
Dir
 
Spd
km/h
Gust
km/h
Spd
kts
Gust
kts
29/11:30pm 15.0 13.5 10.6 75 2.4 E 9 15 5 8 1016.6 1016.0 0.0
29/11:00pm 14.8 14.1 7.1 60 3.8 CALM 0 0 0 0 1016.5 1015.9 0.0
29/10:30pm 17.0 14.9 8.2 56 4.6 ENE 9 13 5 7 1016.2 1015.6 0.0
29/10:00pm 16.5 13.3 3.2 41 6.2 ESE 9 11 5 6 1016.2 1015.6 0.0
29/09:30pm 19.1 16.5 3.3 35 7.6 W 6 7 3 4 1015.9 1015.3 0.0
29/09:00pm 20.6 17.4 3.3 32 8.4 W 9 13 5 7 1015.6 1015.0 0.0
29/08:30pm 20.9 17.8 3.6 32 8.4 W 9 13 5 7 1015.3 1014.7 0.0
29/08:00pm 21.1 17.3 3.8 32 8.5 W 13 15 7 8 1015.1 1014.5 0.0
29/07:30pm 23.9 20.5 3.8 27 10.0 W 11 17 6 9 1014.8 1014.2 0.0
29/07:00pm 26.7 23.3 3.9 23 11.6 W 11 19 6 10 1014.3 1013.7 0.0
29/06:30pm 28.1 23.4 3.0 20 12.7 WSW 17 22 9 12 1014.2 1013.6 0.0
29/06:00pm 29.1 24.8 3.1 19 13.3 WSW 15 20 8 11 1013.9 1013.3 0.0
29/05:30pm 29.5 25.6 3.5 19 13.4 W 13 20 7 11 1013.9 1013.3 0.0
29/05:00pm 29.4 25.7 2.6 18 13.6 SW 11 17 6 9 1013.9 1013.3 0.0
29/04:30pm 29.5 25.4 4.2 20 13.2 W 15 24 8 13 1014.1 1013.5 0.0
29/04:00pm 29.8 26.2 5.1 21 13.1 WNW 13 26 7 14 1014.3 1013.7 0.0
29/03:30pm 29.3 26.0 4.7 21 12.9 WSW 11 22 6 12 1014.6 1013.9 0.0
29/03:00pm 28.5 25.5 4.1 21 12.6 S 9 17 5 9 1015.2 1014.6 0.0
29/02:30pm 28.0 24.3 4.3 22 12.2 WSW 13 22 7 12 1015.7 1015.1 0.0
29/02:00pm 27.3 24.0 4.4 23 11.8 NE 11 20 6 11 1016.1 1015.5 0.0
29/01:30pm 27.3 23.8 5.6 25 11.4 WNW 13 22 7 12 1016.4 1015.8 0.0
29/01:00pm 26.0 22.3 4.5 25 11.0 WNW 13 19 7 10 1016.8 1016.2 0.0
29/12:30pm 25.6 22.7 4.7 26 10.7 WNW 9 15 5 8 1017.3 1016.7 0.0
29/12:00pm 24.3 21.8 4.6 28 10.0 SSE 7 15 4 8 1017.7 1017.1 0.0
29/11:30am 23.4 20.5 4.9 30 9.4 SSW 9 17 5 9 1018.1 1017.5 0.0
29/11:00am 23.2 20.4 5.1 31 9.2 SW 9 17 5 9 1018.6 1018.0 0.0
29/10:30am 22.2 18.5 4.7 32 8.8 WSW 13 22 7 12 1018.8 1018.2 0.0
29/10:00am 21.2 18.4 5.1 35 8.1 SW 9 19 5 10 1018.9 1018.3 0.0
29/09:30am 20.2 17.3 4.7 36 7.7 S 9 22 5 12 1018.9 1018.3 0.0
29/09:00am 20.0 16.8 4.9 37 7.5 W 11 15 6 8 1018.9 1018.3 0.0
29/08:30am 18.6 14.7 3.6 37 7.2 W 13 17 7 9 1018.8 1018.2 0.0
29/08:00am 17.4 13.4 3.0 38 6.7 W 13 19 7 10 1018.7 1018.1 0.0
29/07:30am 15.6 14.2 3.4 44 5.7 CALM 0 6 0 3 1018.6 1018.0 0.0
29/07:00am 12.9 11.5 3.3 52 4.4 CALM 0 0 0 0 1018.2 1017.6 0.0
29/06:30am 12.0 8.7 2.2 51 4.3 NW 9 11 5 6 1017.9 1017.3 0.0
29/06:00am 11.6 7.8 1.8 51 4.3 NW 11 11 6 6 1017.5 1016.9 0.0
29/05:30am 11.3 7.1 1.8 52 4.1 NW 13 13 7 7 1017.0 1016.5 0.0
29/05:00am 11.6 8.1 1.5 50 4.4 NW 9 13 5 7 1016.8 1016.2 0.0

Other Formats:

Comma delimited format used in spreadsheet applications
http://www.bom.gov.au/fwo/IDN60801/IDN60801.95754.axf

JavaScript Object Notation format (JSON) in row-major order
http://www.bom.gov.au/fwo/IDN60801/IDN60801.95754.json